Regional Weather Roundup
Issued by NWS New Orleans/Baton Rouge, LA

Home | Current Version | Previous Version | Graphics & Text | Print | Product List | Glossary On
Versions: 1 2 3 4 5 6 7 8 9 10 11 12 13 14 15 16 17 18 19 20 21 22 23 24 25 26 27 28 29 30 31 32 33 34 35 36 37 38 39 40 41 42 43 44 45 46 47 48 49 50
812
ASUS44 KLIX 220505
RWRLIX
NEW ORLEANS REGIONAL WEATHER ROUNDUP
NATIONAL WEATHER SERVICE NEW ORLEANS LA
1100 PM CST SUN DEC 21 2014

NOTE: "FAIR" INDICATES FEW OR NO CLOUDS BELOW 12,000 FEET WITH NO
      SIGNIFICANT WEATHER AND/OR OBSTRUCTIONS TO VISIBILITY.
      SKY/WX - SKY CONDITION AND SIGNIFICANT WEATHER.
      TMP - AIR TEMPERATURE.     DP    - DEWPOINT TEMPERATURE.
      RH  - RELATIVE HUMIDITY.   PRES  - PRESSURE.
      HI  - HEAT INDEX.          WCI   - WIND CHILL INDEX.

*  THESE STATIONS ARE NOT NWS OR FAA STATIONS AND ARE NOT UNDER
   NWS QUALITY CONTROL.

LAZ038-040-048-061>063-065>067-069-220600-
SOUTHEAST LOUISIANA

CITY           SKY/WX    TMP DP  RH WIND       PRES   REMARKS
N.O. AUDUBON     N/A     59  56  89 MISG        N/A
N.O. INTL ARPT CLOUDY    57  54  89 E5        29.96F FOG
N.O. LAKEFRONT CLOUDY    58  55  90 E10       29.96F FOG
N.O. DOWNTOWN* CLOUDY    57  52  82 NE3       29.96F
SLIDELL        CLOUDY    55  52  89 CALM      29.96F FOG
BATON ROUGE    MOCLDY    50  48  93 E5        29.96S
BOOTHVILLE     CLOUDY    58  57  97 NE6       29.94F FOG
BELLE CHASSE   CLOUDY    57  55  93 NE5       29.95F FOG
BOGALUSA*        N/A     55  51  88 E5        29.99F FOG
GALLIANO*      CLOUDY    57  56  97 MISG      29.95S FOG
NEW ROADS*     CLOUDY    52  50  94 E3        29.95F
GONZALES*      CLOUDY    54  54 100 CALM      29.96R
HAMMOND*       NOT AVBL
HOUMA*         CLOUDY    55  55  97 E5        29.96S FOG
PORT FOURCHON* CLOUDY    61  59  94 E7        29.96F FOG

$$

MSZ070-080>082-220600-
SOUTHERN MISSISSIPPI

CITY           SKY/WX    TMP DP  RH WIND       PRES   REMARKS
MCCOMB         CLOUDY    51  49  92 SE8       29.95F
GULFPORT       CLOUDY    56  54  93 NE5       29.97F FOG
BILOXI         CLOUDY    56  56 100 NE6       29.98S
PASCAGOULA     CLOUDY    56  54  93 NE6       29.98F

$$

COASTAL OBSERVATIONS
LAKE AND NEARSHORE STATIONS

STATION/POSITION TIME  TEMP    WIND        PRES    WAVE
                       AIR SEA DIR/SP/G            HT/PER
                 (UTC) (F)     (DEG/KT/KT) (MB)    (FT/S)
PASCAGOULA       0500   56      50/  9/ 12 1014.4
WAVELAND YACHT   0500   56      90/  6/  8 1014.1
GRAND ISLE       0500   60 60   90/  7/ 11 1014.2
SOUTHWEST PASS   0500   63                 1014.0
NEW CANAL        0500   57 56   80/  3/  9 1014.6
SHELL BEACH      0500   57 57   70/  9/ 10 1014.1

OFFSHORE STATIONS

STATION/POSITION TIME  TEMP    WIND        PRES    WAVE
                       AIR SEA DIR/SP/G            HT/PER
                 (UTC) (F)     (DEG/KT/KT) (MB)    (FT/S)
64 S DAUPHIN ISL 0500   70 74  120/ 12/ 14 1013.4    3/ 5

$$




USA.gov is the U.S. government's official web portal to all federal, state and local government web resources and services.